Orbital Elements at Epoch 2459200.5 (2020-Dec-17.0) TDB
Reference: JPL 29 (heliocentric ecliptic J2000)
Element | Value | Uncertainty (1-sigma) | Units |
e | .2462691978882502 | 4.1469e-08 | |
a | 2.543700398049352 | 1.3299e-08 | au |
q | 1.917265341353715 | 1.0397e-07 | au |
i | 7.352392563208884 | 3.5765e-06 | deg |
node | 138.0905844706218 | 3.4704e-05 | deg |
peri | 188.0985638507377 | 3.5998e-05 | deg |
M | 227.6726750835547 | 1.1923e-05 | deg |
tp | 2459745.183721478245 (2022-Jun-14.68372148) | 5.064e-05 | TDB |
period | 1481.826522647397 4.06 | 1.1621e-05 3.182e-08 | d yr |
n | .2429434178009126 | 1.9053e-09 | deg/d |
Q | 3.170135454744988 | 1.6574e-08 | au |
|
| | Orbit Determination Parameters
Additional Information
|